{"data":{"norad_id":64117,"intl_designator":"2025-110X","name":"STARLINK-34122","alt_names":[],"object_type":"PAYLOAD","status":"ACTIVE","operator":null,"country":"US","launch_date":"2025-05-23","launch_site_code":"AFWTR","launch_vehicle":null,"mission":null,"orbit_class":"UNKNOWN","rcs_meters":null,"size_class":null,"mass_kg":null,"dimensions":null,"purposes":["comms"],"wikipedia_slug":null,"has_3d_model":false,"image_url":null,"decayed_at":null,"tle_current":{"epoch":"2026-09-20T02:43:29.588160Z","epoch_age_seconds":173868,"freshness":"STALE","line1":"1 64117U 25110X   26263.11353690  .00013723  00000+0  45295-3 0  9998","line2":"2 64117  53.1598 201.9793 0001774  90.9386 269.1819 15.31715060 75666","mean_motion":15.3171506,"eccentricity":0.0001774,"inclination_deg":53.1598,"raan_deg":201.9793,"arg_perigee_deg":90.9386,"mean_anomaly_deg":269.1819,"bstar":0.00045295,"rev_number":7566,"period_min":94.012263612529,"perigee_km":469.48011970215,"apogee_km":471.91008533212,"semimajor_km":6848.8321025171,"source":"CELESTRAK","updated_at":"2026-09-21T09:00:35.231049Z"}}}